Погода в Ла-Корунье

Испания     43°21′40″N   8°24′38″W
темп.,
°C
ветер,
м/с
пор.,
м/с
влажн.,
%
обл.,
%
осадки,
мм/ч
давл.,
гПа
погр.,
м
5 декабря, вс
вс501:00+9зсз4108592 1.1 1027793
04:00+9зсз51086100 0.5 1027932
07:00+10сз5118558 1.2 10271016
10:00+10сз4108761 0.8 1027802
13:00+12сз598573 1.6 10271152
16:00+11сз498892 0.8 1027890
19:00+10сз499168 1.3 1028703
22:00+9зсз269425 0.4 1029232
6 декабря, пн
пн601:00+9юз239497 0.5 1028117
04:00+9ююз2496100 0.2 1028166
07:00+10ююз3895100 0.4 1026391
10:00+11ююз31096100 0.6 1026500
13:00+11ююз3997100 2.8 1026433
16:00+11ююз2698100 5.9 1024256
19:00+11ю3997100 7.3 1024322
22:00+12ююз31197100 1.2 1023555
7 декабря, вт
вт701:00+13ююз41397100 1.6 1020725
04:00+14юз51394100 0.3 10181067
07:00+14юз61688100 0.3 10151175
10:00+13юз71791100 2.0 10131467
13:00+11зсз51097100 18.4 1012805
16:00+10з6138634 2.4 10121304
19:00+7з61586100 5.0 10141709
22:00+6з71591100 2.1 10151516
8 декабря, ср
ср801:00+6з71490100 4.3 10141485
04:00+6з61587100 2.9 10131398
07:00+6зсз81687100 5.1 10131648
10:00+5зсз51289100 3.2 10141286
13:00+6сз71377100 5.5 10151310
16:00+7зсз61281100 2.0 10161331
19:00+7зсз4118393 3.6 1018779
22:00+8зсз51187100 1.1 10191218
9 декабря, чт
чт901:00+9зсз51292100 4.2 10181296
04:00+9з41297100 2.6 10171057
07:00+11зсз61495100 4.8 10171126
10:00+12зсз61496100 1.1 10181165
13:00+12зсз51498100 5.6 10171141
16:00+12зсз61397100 3.0 10171103
19:00+13зсз51398100 4.4 10181057
22:00+13зсз51297100 0.9 10181123